Main page
METAR-TAF:

METAR-TAF

Airports :

Frederick Regional Airport

Frederick, Oklahoma, United States

latitude: 34-20-40N, longitude: 098-58-59W, elevation: 1253 ft

Current weather observation

The report was made 1 hour and 6 minutes ago, at 01:53 UTC
Wind 9 mph from the South/Southeast
Temperature 37°F
Humidity 70%
Pressure 30.29 in. Hg
Visibility: 10 miles
Clear sky

METAR: KFDR 150153Z AUTO 15008KT 10SM CLR 03/M02 A3029 RMK AO2 SLP263 T00331017

Time: 20:59 (02:59 UTC)


TAF: missing

Weather observations and forecasts of more than 4000 airports (METAR and TAF reports).

The available stations are represented by yellow and red dots on the map.

Hover mouse over dot to see the name of the station.

Then click to see weather observations and forecasts.

To change the map : click on the green buttons with a black cross to zoom in, on the green button with a dash to zoom out, or on the green arrows for adjacent maps.


METAR-TAF: